Location: Ravensburg
(47.7866°N, 9.6124°E)
Time: 23:59:16
(UTC+01:00)

UKube-1 - Visible Passes

Search period start: 12 March 2026 00:00
Search period end: 22 March 2026 00:00
Orbit: 528 x 533 km, 98.4° (Epoch: 12 March)

Date Brightness Start Highest point End Pass type
(mag) Time Alt. Az. Time Alt. Az. Time Alt. Az.
12 Mar ? 04:43:39 10° NE 04:45:58 15° E 04:48:15 10° SE visible
13 Mar ? 04:34:08 10° ENE 04:35:33 12° E 04:36:58 10° ESE visible
13 Mar ? 06:06:24 10° N 06:10:14 65° WNW 06:14:02 10° SSW visible
14 Mar ? 05:56:04 10° NNE 05:59:55 86° WNW 06:03:46 10° SSW visible
15 Mar ? 05:45:44 10° NNE 05:49:35 71° ESE 05:53:24 10° S visible
16 Mar ? 05:35:25 10° NNE 05:39:12 53° E 05:42:57 10° S visible
17 Mar ? 05:25:08 10° NNE 05:28:47 40° E 05:32:23 10° S visible
18 Mar ? 05:14:53 10° NE 05:18:20 30° E 05:21:44 10° SSE visible
19 Mar ? 05:04:41 10° NE 05:07:50 23° E 05:10:56 10° SSE visible
20 Mar ? 04:54:35 10° NE 04:57:18 18° E 05:00:00 10° SE visible
21 Mar ? 04:44:38 10° ENE 04:46:43 14° E 04:48:48 10° SE visible
